When you browse on this site, cookies collect data to enhance your experience and personalize the content and advertising you see.
Visit our Privacy Policy to learn more. By continuing to use the site, you agree to this use of cookies and data.
  • In France
  • List of Countries
  • For 7 days
  • Water Temperature
  • Satellite Maps
  • Weather Map
  • Weather Widgets
  • user-avatar
    Login

    Hourly Weather Solden

    Today, 12 December, Wednesday

    Time Temperature Precipitation Wind Pressure Humidity
    00:00 -18°C° 0 mm 2 mps 576 mmHg 75%
    01:00 -18°C° 0 mm 2 mps 576 mmHg 74%
    02:00 -18°C° 0 mm 2 mps 576 mmHg 73%
    03:00 -18°C° 0 mm 2 mps 576 mmHg 73%
    04:00 -18°C° 0 mm 2 mps 575 mmHg 72%
    05:00 -18°C° 0 mm 2 mps 575 mmHg 72%
    06:00 -18°C° 0 mm 2 mps 575 mmHg 72%
    07:00 -18°C° 0 mm 2 mps 576 mmHg 75%
    08:00 -16°C° 0 mm 2 mps 576 mmHg 73%
    09:00 -15°C° 0 mm 2 mps 577 mmHg 70%
    10:00 -12°C° 0 mm 1 mps 578 mmHg 68%
    11:00 -10°C° 0 mm 1 mps 578 mmHg 64%
    12:00 -9°C° 0 mm 1 mps 578 mmHg 60%
    13:00 -8°C° 0 mm 1 mps 579 mmHg 55%
    14:00 -9°C° 0 mm 1 mps 578 mmHg 60%
    15:00 -11°C° 0 mm 0 mps 577 mmHg 64%
    16:00 -12°C° 0 mm 0 mps 576 mmHg 68%
    17:00 -13°C° 0 mm 1 mps 575 mmHg 70%
    18:00 -14°C° 0 mm 1 mps 575 mmHg 71%
    19:00 -15°C° 0 mm 1 mps 575 mmHg 73%
    20:00 -16°C° 0 mm 1 mps 574 mmHg 72%
    21:00 -16°C° 0 mm 1 mps 574 mmHg 72%
    22:00 -16°C° 0 mm 1 mps 574 mmHg 71%
    23:00 -16°C° 0 mm 1 mps 574 mmHg 71%

    Tomorrow, 13 December, Thursday

    Time Temperature Precipitation Wind Pressure Humidity
    00:00 -16°C° 0 mm 1 mps 574 mmHg 71%
    01:00 -16°C° 0 mm 1 mps 574 mmHg 71%
    02:00 -18°C° 0 mm 2 mps 573 mmHg 71%
    03:00 -18°C° 0 mm 2 mps 573 mmHg 71%
    04:00 -19°C° 0 mm 2 mps 573 mmHg 71%
    05:00 -19°C° 0 mm 2 mps 573 mmHg 71%
    06:00 -19°C° 0 mm 2 mps 572 mmHg 71%
    07:00 -19°C° 0 mm 2 mps 572 mmHg 71%
    08:00 -18°C° 0 mm 2 mps 573 mmHg 70%
    09:00 -16°C° 0 mm 2 mps 573 mmHg 69%
    10:00 -15°C° 0 mm 2 mps 574 mmHg 69%
    11:00 -11°C° 0 mm 1 mps 574 mmHg 67%
    12:00 -10°C° 0 mm 1 mps 575 mmHg 65%
    13:00 -9°C° 0 mm 1 mps 575 mmHg 64%
    14:00 -10°C° 0 mm 1 mps 574 mmHg 67%
    15:00 -11°C° 0 mm 1 mps 574 mmHg 71%
    16:00 -12°C° 0 mm 1 mps 573 mmHg 75%
    17:00 -13°C° 0 mm 1 mps 573 mmHg 75%
    18:00 -14°C° 0 mm 1 mps 572 mmHg 76%
    19:00 -15°C° 0 mm 1 mps 572 mmHg 76%
    20:00 -15°C° 0 mm 1 mps 572 mmHg 76%
    21:00 -17°C° 0 mm 2 mps 572 mmHg 76%
    22:00 -17°C° 0 mm 2 mps 573 mmHg 76%
    23:00 -17°C° 0 mm 2 mps 573 mmHg 76%

    Day after tomorrow, 14 December, Friday

    Time Temperature Precipitation Wind Pressure Humidity
    00:00 -17°C° 0 mm 2 mps 573 mmHg 76%
    01:00 -17°C° 0 mm 2 mps 573 mmHg 76%
    02:00 -17°C° 0 mm 2 mps 572 mmHg 76%
    03:00 -17°C° 0 mm 2 mps 572 mmHg 75%
    04:00 -15°C° 0 mm 1 mps 572 mmHg 75%
    05:00 -15°C° 0 mm 1 mps 572 mmHg 75%
    06:00 -15°C° 0 mm 1 mps 572 mmHg 75%
    07:00 -15°C° 0 mm 1 mps 572 mmHg 75%
    08:00 -14°C° 0 mm 1 mps 573 mmHg 73%
    09:00 -12°C° 0 mm 1 mps 574 mmHg 70%
    10:00 -11°C° 0 mm 1 mps 575 mmHg 68%
    11:00 -9°C° 0 mm 1 mps 575 mmHg 64%
    12:00 -8°C° 0 mm 0 mps 576 mmHg 61%
    13:00 -7°C° 0 mm 0 mps 576 mmHg 57%
    14:00 -8°C° 0 mm 0 mps 575 mmHg 63%
    15:00 -10°C° 0 mm 0 mps 575 mmHg 68%
    16:00 -11°C° 0 mm 0 mps 574 mmHg 74%
    17:00 -12°C° 0 mm 1 mps 574 mmHg 75%
    18:00 -13°C° 0 mm 1 mps 574 mmHg 76%
    19:00 -14°C° 0 mm 1 mps 574 mmHg 77%
    20:00 -14°C° 0 mm 1 mps 574 mmHg 74%
    21:00 -15°C° 0 mm 1 mps 574 mmHg 71%
    22:00 -15°C° 0 mm 1 mps 574 mmHg 68%
    23:00 -15°C° 0 mm 1 mps 574 mmHg 65%

    15 December, Saturday

    Time Temperature Precipitation Wind Pressure Humidity
    00:00 -17°C° 0 mm 2 mps 574 mmHg 63%
    01:00 -18°C° 0 mm 2 mps 574 mmHg 60%
    02:00 -18°C° 0 mm 2 mps 574 mmHg 61%
    03:00 -18°C° 0 mm 2 mps 574 mmHg 61%
    04:00 -18°C° 0 mm 2 mps 574 mmHg 62%
    05:00 -18°C° 0 mm 2 mps 574 mmHg 63%
    06:00 -18°C° 0 mm 2 mps 574 mmHg 64%
    07:00 -18°C° 0 mm 2 mps 574 mmHg 65%
    08:00 -17°C° 0 mm 2 mps 575 mmHg 65%
    09:00 -15°C° 0 mm 2 mps 576 mmHg 65%
    10:00 -14°C° 0 mm 2 mps 577 mmHg 65%
    11:00 -13°C° 0 mm 2 mps 577 mmHg 63%
    12:00 -10°C° 0 mm 2 mps 578 mmHg 62%
    13:00 -9°C° 0 mm 2 mps 578 mmHg 61%
    14:00 -10°C° 0 mm 2 mps 577 mmHg 66%
    15:00 -12°C° 0 mm 2 mps 577 mmHg 70%
    16:00 -14°C° 0 mm 2 mps 576 mmHg 74%
    17:00 -15°C° 0 mm 2 mps 576 mmHg 71%
    18:00 -16°C° 0 mm 2 mps 576 mmHg 68%
    19:00 -17°C° 0 mm 2 mps 575 mmHg 65%
    20:00 -17°C° 0 mm 2 mps 576 mmHg 60%
    21:00 -17°C° 0 mm 2 mps 576 mmHg 55%
    22:00 -17°C° 0 mm 2 mps 576 mmHg 50%
    23:00 -17°C° 0 mm 2 mps 576 mmHg 47%

    16 December, Sunday

    Time Temperature Precipitation Wind Pressure Humidity
    00:00 -16°C° 0 mm 2 mps 576 mmHg 44%
    01:00 -16°C° 0 mm 2 mps 576 mmHg 41%
    02:00 -16°C° 0 mm 2 mps 576 mmHg 39%
    03:00 -14°C° 0 mm 1 mps 576 mmHg 38%
    04:00 -13°C° 0 mm 1 mps 575 mmHg 36%
    05:00 -13°C° 0 mm 1 mps 576 mmHg 35%
    06:00 -12°C° 0 mm 1 mps 576 mmHg 34%
    07:00 -12°C° 0 mm 1 mps 576 mmHg 34%
    08:00 -10°C° 0 mm 1 mps 577 mmHg 37%
    09:00 -8°C° 0 mm 1 mps 578 mmHg 40%
    10:00 -6°C° 0 mm 1 mps 579 mmHg 44%
    11:00 -4°C° 0 mm 1 mps 579 mmHg 45%
    12:00 -3°C° 0 mm 1 mps 580 mmHg 47%
    13:00 -4°C° 0 mm 2 mps 580 mmHg 49%
    14:00 -3°C° 0 mm 1 mps 579 mmHg 51%
    15:00 -4°C° 0 mm 1 mps 578 mmHg 53%
    16:00 -6°C° 0 mm 1 mps 578 mmHg 55%
    17:00 -8°C° 0 mm 2 mps 578 mmHg 55%
    18:00 -8°C° 0 mm 2 mps 577 mmHg 54%
    19:00 -9°C° 0 mm 2 mps 577 mmHg 54%
    20:00 -9°C° 0.1 mm 2 mps 577 mmHg 57%
    21:00 -9°C° 0.1 mm 2 mps 577 mmHg 60%
    22:00 -9°C° 0.1 mm 2 mps 577 mmHg 63%
    23:00 -9°C° 0.3 mm 2 mps 577 mmHg 68%

    17 December, Monday

    Time Temperature Precipitation Wind Pressure Humidity
    00:00 -9°C° 0.3 mm 2 mps 577 mmHg 74%
    01:00 -8°C° 0.3 mm 1 mps 577 mmHg 80%
    02:00 -8°C° 0.2 mm 1 mps 577 mmHg 82%
    03:00 -8°C° 0.2 mm 1 mps 577 mmHg 84%
    04:00 -8°C° 0.2 mm 1 mps 577 mmHg 86%
    05:00 -8°C° 0.2 mm 1 mps 577 mmHg 87%
    06:00 -8°C° 0.2 mm 1 mps 577 mmHg 88%
    07:00 -8°C° 0.2 mm 1 mps 577 mmHg 89%
    08:00 -7°C° 0.3 mm 1 mps 578 mmHg 87%
    09:00 -6°C° 0.3 mm 1 mps 579 mmHg 86%
    10:00 -4°C° 0.3 mm 1 mps 579 mmHg 84%
    11:00 -4°C° 0.4 mm 1 mps 579 mmHg 83%
    12:00 -3°C° 0.4 mm 1 mps 579 mmHg 83%
    13:00 -3°C° 0.4 mm 1 mps 579 mmHg 82%
    14:00 -3°C° 0.5 mm 1 mps 579 mmHg 85%
    15:00 -4°C° 0.5 mm 1 mps 579 mmHg 88%
    16:00 -4°C° 0.5 mm 1 mps 579 mmHg 90%
    17:00 -6°C° 0.3 mm 1 mps 579 mmHg 90%
    18:00 -7°C° 0.3 mm 2 mps 579 mmHg 91%
    19:00 -7°C° 0.3 mm 2 mps 580 mmHg 91%
    20:00 -7°C° 0.2 mm 2 mps 580 mmHg 90%
    21:00 -7°C° 0.2 mm 2 mps 580 mmHg 90%
    22:00 -8°C° 0.2 mm 2 mps 580 mmHg 89%
    23:00 -8°C° 0.1 mm 2 mps 580 mmHg 88%
    Show more